Location: Alexandria
(38.8050°N, 77.0470°W)
Time: 22:06:07
(UTC-04:00)

Vanguard 1 - All Passes

Search period start: 21 May 2018 00:00
Search period end: 31 May 2018 00:00
Orbit: 650 x 3833 km, 34.3° (Epoch: 21 May)

Date Brightness Start Highest point End Pass type
(mag) Time Alt. Az. Time Alt. Az. Time Alt. Az.
21 May - 11:30:00 10° S 11:44:22 20° SE 11:56:59 10° E daylight
21 May - 13:47:46 10° SW 14:08:45 46° SSE 14:23:04 10° E daylight
21 May - 16:13:04 10° WSW 16:33:07 69° S 16:44:12 10° E daylight
21 May - 18:40:57 10° W 18:55:55 67° SSW 19:03:45 10° ESE daylight
21 May - 21:07:55 10° W 21:16:04 29° SW 21:21:18 10° SSE visible
22 May - 11:48:02 10° S 12:05:23 27° SE 12:20:03 10° E daylight
22 May - 14:08:15 10° SW 14:30:00 54° SSE 14:44:19 10° E daylight
22 May - 16:34:36 10° WSW 16:54:22 72° S 17:05:07 10° E daylight
22 May - 19:02:37 10° W 19:16:52 60° SSW 19:24:26 10° ESE daylight
22 May - 21:29:58 10° W 21:36:25 21° SW 21:40:59 10° S visible
23 May - 12:07:02 10° SSW 12:26:24 34° SE 12:42:17 10° E daylight
23 May - 14:29:05 10° SW 14:51:17 61° SSE 15:05:26 10° E daylight
23 May - 16:56:16 10° W 17:15:37 74° S 17:26:00 10° E daylight
23 May - 19:24:17 10° W 19:37:40 52° SSW 19:44:58 10° SE daylight
23 May - 21:52:48 10° WSW 21:56:39 14° SW 21:59:47 10° SSW visible
24 May - 10:12:54 10° SSE 10:23:31 15° SE 10:33:51 10° ESE daylight
24 May - 12:26:40 10° SSW 12:47:29 42° SSE 13:04:03 10° E daylight
24 May - 14:50:12 10° WSW 15:12:36 67° SSE 15:26:30 10° E daylight
24 May - 17:17:59 10° W 17:36:49 73° S 17:46:51 10° ESE daylight
24 May - 19:46:01 10° W 19:58:21 43° SSW 20:05:20 10° SE daylight
25 May - 10:29:27 10° S 10:44:17 22° SE 10:58:31 10° E daylight
25 May - 12:46:46 10° SW 13:08:38 50° SSE 13:25:32 10° E daylight
25 May - 15:11:33 10° WSW 15:33:58 72° S 15:47:30 10° E daylight
25 May - 17:39:44 10° W 17:57:57 69° SSW 18:07:38 10° ESE daylight
25 May - 20:07:51 10° W 20:18:51 34° SW 20:25:28 10° SSE daylight
26 May - 10:47:40 10° S 11:05:05 29° SE 11:21:35 10° E daylight
26 May - 13:07:14 10° SW 13:29:52 57° SSE 13:46:51 10° E daylight
26 May - 15:33:04 10° WSW 15:55:20 75° S 16:08:30 10° E daylight
26 May - 18:01:29 10° W 18:18:59 63° SSW 18:28:20 10° ESE daylight
26 May - 20:29:56 10° W 20:39:11 25° SW 20:45:14 10° S daylight
27 May - 11:06:46 10° SSW 11:25:57 36° SE 11:43:52 10° E daylight
27 May - 13:28:03 10° SW 13:51:11 64° SSE 14:08:03 10° E daylight
27 May - 15:54:43 10° W 16:16:42 76° S 16:29:27 10° E daylight
27 May - 18:23:15 10° W 18:39:53 56° SSW 18:48:54 10° SE daylight
27 May - 20:52:34 10° W 20:59:23 18° SW 21:04:23 10° S visible
28 May - 09:13:08 10° SSE 09:23:31 15° SE 09:34:17 10° E daylight
28 May - 11:26:26 10° SSW 11:46:54 44° SE 12:05:43 10° E daylight
28 May - 13:49:07 10° WSW 14:12:34 69° SSE 14:29:12 10° E daylight
28 May - 16:16:27 10° W 16:38:01 75° S 16:50:21 10° ESE daylight
28 May - 18:45:03 10° W 19:00:36 47° SSW 19:09:17 10° SE daylight
28 May - 21:17:00 10° WSW 21:19:28 11° SW 21:21:40 10° SW visible
29 May - 09:29:54 10° S 09:44:02 22° SE 09:59:02 10° E daylight
29 May - 11:46:32 10° SW 12:07:58 51° SSE 12:27:17 10° E daylight
29 May - 14:10:24 10° WSW 14:34:01 74° S 14:50:18 10° E daylight
29 May - 16:38:12 10° W 16:59:17 71° SSW 17:11:11 10° ESE daylight
29 May - 19:06:58 10° W 19:21:09 38° SW 19:29:26 10° SSE daylight
30 May - 09:48:14 10° S 10:04:37 29° SE 10:22:11 10° E daylight
30 May - 12:06:59 10° SW 12:29:09 59° SSE 12:48:41 10° E daylight
30 May - 14:31:52 10° WSW 14:55:30 76° S 15:11:23 10° E daylight
30 May - 16:59:59 10° W 17:20:25 66° SSW 17:31:55 10° ESE daylight
30 May - 19:29:05 10° W 19:41:29 30° SW 19:49:16 10° SSE daylight
